Theta_e
324 322 315 313 300 298 293 297 301 302 305 309 313 312 310 313 308 303 328 335 335 337 340 343 347 348 345 345 344 345 347 347 345 344 342 340 338 338 336 335 338 335 335 334 333 333 334 334 333
319 321 313 306 296 290 291 297 299 302 307 317 317 316 316 312 322 323 327 335 336 337 339 341 343 346 346 345 345 345 346 345 345 343 341 339 337 336 335 334 335 334 334 334 332 332 331 330 330
315 316 307 301 294 290 292 298 299 304 310 310 313 318 318 316 322 325 330 336 336 336 338 340 343 346 346 345 346 346 345 346 344 342 340 339 338 335 334 334 334 334 332 333 333 332 331 329 329
311 308 303 298 294 297 297 299 302 304 311 312 315 312 319 326 325 328 335 336 334 335 337 339 343 345 345 345 346 346 345 345 343 340 340 339 336 335 334 333 334 333 333 332 332 331 329 327 327
309 303 295 293 295 299 300 304 302 303 306 310 315 311 315 326 329 333 333 334 332 334 336 338 342 343 344 345 345 346 347 345 344 341 340 339 337 335 335 333 332 332 332 331 330 328 327 325 324
303 301 292 290 293 297 300 302 302 302 304 310 314 315 317 326 329 331 333 330 332 335 336 337 336 338 342 344 344 344 344 344 343 341 340 338 337 336 334 333 332 331 330 330 328 327 325 324 323
301 298 293 292 294 297 301 303 301 302 304 307 317 313 315 322 327 331 330 328 331 336 337 337 338 337 336 339 340 342 342 342 342 341 339 338 337 337 336 335 332 331 330 329 327 325 325 324 323
303 300 294 293 295 296 302 302 304 304 305 316 321 313 314 323 325 328 328 329 331 335 336 336 336 336 338 338 333 335 337 338 338 337 335 333 333 334 333 331 332 330 329 327 326 325 324 323 324
305 296 293 295 296 299 302 302 304 306 305 315 321 319 322 326 325 326 326 328 331 333 334 335 336 336 335 334 331 330 332 332 332 331 329 328 328 329 327 326 330 331 329 327 326 324 324 326 325
298 293 295 301 301 302 303 303 304 303 302 306 317 322 326 324 324 323 324 325 326 328 330 332 335 335 334 336 331 332 332 331 330 329 327 327 325 324 325 322 326 330 329 330 328 327 327 324 317
292 294 293 299 295 295 301 303 305 303 303 304 309 317 323 322 322 323 324 326 326 329 330 331 332 334 334 334 331 330 329 328 328 325 324 323 323 320 320 319 322 322 320 320 322 320 318 318 317
288 294 293 294 295 296 297 302 302 303 304 307 308 319 322 323 321 321 323 324 326 328 329 330 332 332 333 329 328 327 326 324 324 323 322 320 318 317 317 317 318 319 318 316 315 315 316 316 317
289 290 291 292 295 296 298 297 301 303 307 308 319 322 322 323 323 322 323 325 326 326 328 329 331 331 331 328 327 325 324 324 323 323 321 320 318 317 316 316 317 317 316 315 314 314 315 316 317
289 287 289 292 293 295 296 298 300 303 309 308 314 319 322 322 324 320 320 323 324 326 326 329 330 330 330 327 325 324 324 323 323 322 322 320 319 317 316 316 316 315 316 316 315 315 315 315 316
287 285 288 288 290 293 300 295 297 304 307 308 316 320 320 322 322 322 324 321 324 326 327 327 328 329 328 327 324 324 324 323 323 322 321 321 319 318 317 317 316 317 317 316 315 315 314 314 316
280 280 274 282 285 287 286 285 295 297 295 300 305 309 319 320 321 325 326 325 322 326 326 327 329 327 326 326 324 324 324 323 323 323 322 322 321 319 317 317 317 317 316 316 314 314 314 314 314
275 271 274 277 283 284 283 279 287 291 293 292 295 300 302 309 319 321 324 325 324 323 326 326 327 326 326 326 325 325 325 324 324 324 322 322 322 321 319 318 317 317 316 315 314 314 314 313 314
272 272 274 274 280 282 280 280 284 287 288 289 290 293 296 298 303 319 324 325 326 322 325 327 326 326 325 326 326 325 325 325 325 324 323 322 323 322 320 318 318 317 315 315 315 315 315 315 316
275 273 273 276 282 280 279 279 281 285 286 287 289 291 294 297 302 305 316 326 325 325 322 326 326 325 325 324 323 323 323 324 326 327 326 324 323 322 320 320 318 317 317 317 317 317 316 316 318
276 274 272 277 281 280 278 277 281 283 284 287 288 290 294 297 299 301 303 321 325 325 321 324 326 326 325 326 326 325 325 326 326 327 327 324 323 322 322 320 319 318 319 318 319 319 318 319 321
276 274 275 275 279 280 276 274 276 281 283 286 289 292 293 296 298 301 300 305 323 324 324 321 325 326 326 327 327 324 325 325 323 324 325 325 323 323 322 321 321 320 320 320 320 320 320 320 322
275 278 278 277 274 269 276 268 273 277 279 283 286 290 291 295 298 298 303 302 308 323 327 326 323 325 325 327 326 324 323 321 324 324 324 324 323 323 323 323 322 321 322 321 321 322 322 320 320
277 281 279 277 274 273 271 267 271 277 278 280 285 290 292 293 294 296 300 305 309 314 318 326 325 323 325 325 326 325 324 325 324 323 322 323 323 323 323 323 323 322 322 322 322 322 322 324 323
281 278 277 274 273 262 270 269 271 274 277 280 283 288 289 290 293 295 298 300 303 307 309 311 319 321 324 324 324 323 323 323 322 320 321 322 322 323 323 323 323 324 324 323 323 324 325 324 324
277 271 263 260 259 262 271 271 272 278 281 281 282 287 287 287 289 293 295 296 298 301 304 307 310 315 323 323 323 323 323 323 321 320 321 321 322 322 322 322 323 323 325 324 325 325 324 323 323
275 272 264 258 263 266 274 269 272 279 281 284 284 284 284 285 287 287 293 295 296 298 301 302 305 307 313 323 322 323 323 322 322 321 321 321 322 323 321 323 322 320 321 318 319 315 312 313 312
274 265 274 268 271 267 269 272 278 280 280 281 281 281 281 284 286 286 288 292 294 296 298 300 301 304 308 311 322 322 322 322 321 321 322 323 323 320 319 317 313 311 311 311 310 308 306 305 302
276 278 266 266 256 257 267 269 270 275 276 280 280 280 280 282 284 285 286 288 289 294 295 298 299 300 304 307 310 322 322 322 323 322 322 322 317 314 312 310 308 307 307 307 305 303 302 300 298
273 270 269 267 267 263 263 267 276 275 276 277 277 279 281 282 284 285 285 287 288 290 293 295 295 296 299 302 305 309 321 321 322 320 319 316 312 310 308 307 306 306 306 304 301 299 298 295 294
276 273 272 262 263 269 268 266 278 278 278 277 278 281 282 282 282 283 284 285 286 287 290 293 293 293 295 299 302 306 309 317 319 312 310 309 306 307 307 307 306 303 301 299 297 295 294 292 291
Wind_Speed
13 9 0 5 4 5 3 7 3 8 7 3 0 4 6 2 5 5 2 6 13 15 12 12 16 17 16 15 13 13 15 16 15 14 14 13 13 13 12 11 10 12 13 12 12 12 11 11 11
7 4 5 3 5 1 6 5 4 7 3 2 2 3 3 1 1 4 6 8 15 15 12 11 14 17 17 16 14 13 14 15 15 14 14 13 12 12 12 11 11 12 12 13 11 11 10 9 9
5 2 4 4 4 7 6 6 3 7 3 4 1 3 5 3 2 9 2 13 14 13 12 11 14 17 17 15 14 13 14 15 16 14 14 14 13 12 12 11 11 11 11 11 10 10 8 7 7
4 4 4 3 7 7 7 5 2 10 8 5 2 2 2 2 6 8 12 14 12 12 11 12 15 17 18 15 13 13 13 16 16 14 14 14 13 12 11 11 9 9 11 10 10 7 6 6 5
4 3 1 3 7 6 4 6 2 6 4 5 5 4 3 1 5 13 14 13 13 10 9 12 15 16 17 17 14 12 17 16 17 14 14 13 12 12 10 11 10 9 9 8 8 6 5 4 4
3 3 1 5 7 5 6 5 3 4 7 4 4 7 5 2 8 10 12 12 12 12 10 11 13 14 15 16 15 12 16 16 16 16 14 14 14 13 12 10 10 10 9 8 6 5 4 2 1
7 3 4 4 6 7 6 4 3 3 7 7 3 8 3 4 6 10 11 9 10 10 12 9 10 12 13 12 13 12 14 14 16 18 16 14 13 12 11 10 10 9 8 7 6 4 3 2 2
1 5 4 4 6 12 4 3 2 4 8 3 3 6 6 6 10 9 8 8 9 10 13 14 7 8 9 9 13 13 13 12 13 13 14 11 11 11 11 9 9 10 9 7 6 5 4 4 5
3 1 4 6 4 10 1 5 2 0 2 2 5 3 2 15 14 12 8 7 9 11 14 14 12 8 7 7 9 12 13 12 11 12 11 10 5 7 8 8 10 10 8 8 7 6 6 6 7
4 1 4 3 5 10 7 6 8 3 4 3 5 4 4 15 17 18 16 16 17 17 15 14 13 13 9 7 7 7 7 6 6 6 7 6 6 5 6 7 10 10 9 8 8 7 6 4 2
6 1 8 8 15 17 16 10 5 5 12 9 8 4 7 16 14 16 15 15 19 17 14 15 15 14 12 9 6 4 4 4 5 7 6 6 5 4 4 3 3 3 6 3 3 3 2 3 3
5 4 3 8 11 10 16 12 15 8 8 6 6 5 7 12 17 18 17 16 16 18 17 17 16 15 12 7 7 6 5 5 5 5 7 5 3 4 4 3 4 4 3 4 4 3 3 4 5
1 8 14 14 13 11 12 13 13 14 12 10 4 7 11 13 17 10 9 10 13 15 16 17 16 16 12 10 7 7 6 6 7 7 7 6 5 5 4 5 4 4 4 4 4 4 4 4 5
6 10 14 9 14 9 10 13 2 7 9 11 8 11 14 14 17 6 9 13 15 15 15 14 16 14 12 10 10 8 7 7 6 6 8 8 6 5 5 4 5 4 4 4 4 4 4 4 4
6 6 9 7 15 12 15 19 12 7 10 14 9 9 8 14 8 15 18 17 19 15 14 16 15 14 13 12 10 8 7 7 7 7 7 9 8 7 7 6 5 6 5 6 4 4 3 4 3
7 7 7 11 13 11 19 21 15 13 11 10 12 12 9 14 14 18 14 12 12 14 18 15 14 15 14 13 9 8 8 8 8 7 7 9 9 9 6 6 6 5 4 4 3 4 3 4 3
8 5 11 9 14 14 7 22 18 26 21 8 8 8 8 9 9 9 10 10 10 14 15 17 16 16 15 13 10 10 11 9 8 8 7 10 11 10 8 7 6 6 4 4 4 4 3 3 4
6 5 5 9 11 15 20 19 19 19 22 21 9 9 9 8 9 10 13 11 10 10 14 15 15 15 15 10 9 8 9 9 9 9 9 10 10 11 9 6 7 5 4 4 4 5 4 4 4
4 4 9 7 9 14 18 23 22 19 19 19 18 11 9 11 12 7 7 13 13 10 12 17 16 17 13 11 11 10 11 10 11 10 12 11 11 10 10 7 6 5 6 7 6 4 6 4 4
3 5 8 8 13 14 17 23 18 11 10 18 22 18 11 8 8 11 8 6 10 13 15 17 19 17 16 13 13 11 10 10 10 8 9 11 10 11 11 10 8 8 6 6 6 6 3 4 4
5 3 6 11 12 12 8 11 8 18 13 11 15 11 13 11 11 14 7 7 7 12 13 15 19 20 18 19 10 4 6 7 8 8 8 9 12 12 12 12 9 9 8 7 8 7 8 6 4
6 3 7 12 15 7 5 11 9 13 11 4 14 14 9 12 14 8 14 8 6 10 12 14 16 17 17 17 13 17 15 13 13 10 7 7 10 12 12 12 12 10 8 9 8 7 8 4 6
8 7 9 15 12 5 4 2 8 11 16 5 10 11 12 11 9 11 14 12 4 7 8 10 12 16 15 15 17 14 14 12 8 9 9 10 8 11 12 12 11 11 8 10 10 7 8 7 8
8 8 14 2 1 4 5 3 8 6 6 13 8 8 12 13 14 14 12 14 14 9 9 9 11 10 13 15 17 16 18 13 9 8 9 7 6 8 11 11 10 11 11 11 10 11 11 9 7
8 5 6 10 7 7 4 11 10 14 18 7 12 7 8 9 13 12 14 14 13 12 13 12 11 12 10 14 16 17 18 16 14 12 10 10 8 7 9 11 11 9 10 10 10 9 8 7 7
4 3 4 6 5 16 18 8 7 8 7 6 5 7 5 7 10 13 10 8 9 11 10 9 11 10 14 12 16 15 14 9 10 9 9 8 8 9 7 10 8 6 5 4 5 5 4 5 5
3 2 4 4 11 6 5 6 13 10 10 4 5 5 8 12 13 13 15 9 7 6 7 8 8 8 11 11 8 12 10 11 11 11 9 8 9 6 8 8 8 8 8 7 8 7 8 10 8
4 1 3 3 5 7 11 13 13 14 13 12 11 10 8 10 13 16 15 14 12 8 6 5 7 10 10 7 8 11 13 12 12 10 10 9 6 8 9 9 10 10 11 11 11 8 6 9 7
2 3 2 2 3 3 8 13 6 8 6 10 9 12 16 18 17 16 14 14 15 10 7 6 4 6 8 8 8 8 11 15 14 11 9 8 7 9 11 12 12 13 12 11 9 9 9 12 9
5 5 4 5 6 3 6 20 5 14 9 6 15 20 20 18 15 15 16 15 15 13 8 7 5 6 6 8 8 7 6 7 11 8 8 8 8 4 6 12 14 11 6 11 13 12 10 11 12
Wind_Direction
327 313 174 48 51 63 256 257 281 305 319 299 41 173 181 101 159 207 116 161 133 148 155 160 160 158 154 155 165 160 151 141 135 135 133 131 126 127 120 118 117 119 109 104 100 99 100 102 97
320 315 37 80 105 119 264 255 281 261 215 61 64 83 46 151 56 122 122 169 146 147 155 160 160 160 156 159 166 169 161 145 138 140 140 136 133 128 134 125 123 124 117 112 108 106 104 103 98
304 335 88 129 155 187 222 220 242 297 290 191 268 25 153 191 142 166 183 149 145 148 154 162 160 160 156 161 169 175 165 151 142 145 143 140 135 136 130 128 128 127 126 114 115 109 100 94 87
357 13 32 123 224 250 210 233 339 332 326 216 172 136 307 213 171 176 143 142 146 151 152 161 162 157 153 164 169 183 182 158 142 149 146 145 143 140 139 133 120 124 129 128 111 110 105 90 67
38 41 176 226 240 250 244 263 272 288 253 265 190 202 250 4 120 133 143 146 147 152 151 158 165 161 158 165 178 186 172 157 146 148 148 145 145 147 147 140 140 128 129 123 127 125 114 96 63
23 87 61 245 251 258 270 237 266 232 260 251 267 144 204 83 128 152 146 149 151 152 158 163 166 164 164 169 175 172 165 157 150 149 150 152 153 155 155 154 147 141 140 143 144 144 148 138 103
136 103 239 249 272 298 246 206 223 276 276 266 166 157 244 190 174 146 145 143 148 153 158 166 172 167 163 166 166 168 166 167 162 153 153 157 157 157 158 156 155 159 159 164 166 178 192 216 262
47 129 204 247 260 274 250 253 214 188 285 47 191 195 219 192 148 122 129 137 148 156 169 172 168 169 169 168 164 162 163 159 153 147 153 155 158 155 152 154 165 174 178 180 192 211 232 255 270
46 350 214 215 192 262 308 333 275 308 248 11 315 263 0 129 132 133 137 146 162 171 176 178 171 171 167 161 165 159 156 162 156 149 158 156 155 156 158 166 174 181 189 198 213 228 248 272 298
50 346 260 260 252 264 263 228 290 318 317 279 311 279 185 146 157 162 173 177 182 181 185 184 179 178 164 168 158 155 157 157 154 152 156 154 156 162 169 179 185 186 191 208 226 244 260 299 305
339 202 360 339 343 347 329 305 260 274 288 237 241 249 233 158 174 175 184 190 183 183 183 189 184 180 174 169 167 164 160 158 160 160 162 164 166 171 173 182 197 187 203 219 252 276 267 255 258
347 310 10 309 322 329 315 306 303 300 271 300 282 220 183 195 182 184 191 185 184 183 187 187 187 183 179 162 172 170 169 165 167 175 169 162 165 176 187 191 199 190 193 214 231 241 255 264 264
66 342 325 311 303 297 292 290 276 283 289 299 321 170 200 219 208 197 192 177 180 193 188 190 189 187 179 175 175 174 180 179 180 176 179 172 176 186 183 196 189 198 189 206 222 228 241 250 265
303 296 297 297 292 279 275 287 247 321 304 296 236 217 208 214 212 183 174 189 190 189 192 185 190 188 182 185 183 183 179 183 181 184 188 183 181 181 187 196 202 204 196 204 207 214 224 242 243
288 333 332 33 342 313 314 272 245 253 298 272 259 244 228 232 222 208 207 192 189 195 183 190 188 188 187 191 185 184 187 182 186 192 192 190 188 192 187 193 200 211 202 206 210 228 228 240 241
4 38 7 328 340 321 347 281 310 328 336 331 313 301 272 245 225 226 220 212 200 189 192 185 188 192 191 190 187 187 188 190 194 192 194 196 194 192 190 192 207 208 197 192 195 207 231 241 247
23 325 334 325 320 333 8 302 320 313 302 298 311 314 318 295 267 262 242 226 195 201 192 193 191 189 191 192 188 190 190 195 198 194 195 196 197 197 191 195 201 192 189 191 200 216 197 222 250
322 315 286 302 313 333 319 302 308 302 303 301 278 282 287 284 275 258 237 229 215 198 203 201 195 189 187 189 191 198 195 198 199 193 198 196 203 197 189 198 203 182 182 201 195 202 200 212 228
234 275 286 281 293 329 308 294 304 299 292 290 287 266 256 270 282 275 268 240 228 202 190 196 199 198 180 188 192 194 201 198 207 201 196 196 200 188 192 203 191 184 195 205 199 193 208 234 229
42 293 297 289 315 320 297 295 292 290 298 304 293 280 253 260 264 263 252 231 224 227 204 204 199 197 195 196 197 200 196 208 209 186 189 194 194 197 196 195 194 192 195 200 201 200 200 219 189
347 274 295 293 308 284 305 295 302 297 301 306 309 311 322 307 261 272 335 297 239 221 223 213 211 204 201 204 191 172 183 206 206 194 193 194 193 199 202 194 197 196 195 204 208 205 210 217 210
320 243 294 300 323 300 61 298 298 292 296 350 346 345 334 351 338 310 264 274 272 249 237 228 220 212 206 200 194 197 202 204 216 206 190 197 195 200 202 198 197 198 197 205 203 209 212 189 226
259 307 278 295 290 321 297 305 266 298 290 349 3 11 3 356 345 2 0 317 328 13 337 284 247 222 212 198 201 203 213 222 210 206 190 190 197 204 206 203 200 198 199 207 205 203 207 206 222
295 318 303 329 350 356 271 57 271 281 263 332 333 341 354 353 348 1 6 8 355 17 2 354 335 254 214 202 204 203 213 213 206 201 210 195 199 204 209 207 205 206 206 201 207 208 212 212 219
16 24 347 354 4 243 342 320 263 278 278 270 283 318 339 351 8 353 358 358 359 6 3 340 339 332 227 209 205 208 208 206 205 199 206 205 202 216 212 194 209 210 213 207 206 208 207 201 211
319 101 137 300 309 299 295 242 260 279 280 261 11 317 324 353 355 355 340 338 343 341 340 355 321 327 324 217 209 215 215 209 213 202 205 212 206 203 188 200 198 185 168 148 123 113 100 101 107
334 27 204 248 264 275 259 300 296 293 327 313 344 310 350 347 343 337 338 326 313 317 312 323 315 302 298 328 231 211 209 210 213 211 202 201 210 189 168 160 140 124 112 105 104 104 106 96 83
198 225 10 5 335 307 285 295 259 305 303 295 329 330 319 325 327 325 322 316 318 299 274 262 290 316 310 307 308 225 205 204 218 213 202 202 174 158 143 135 130 123 119 114 107 90 83 90 100
13 328 41 120 158 258 307 288 226 270 278 295 310 313 315 313 311 310 307 309 309 300 288 286 294 294 319 312 312 309 221 205 191 200 196 178 164 159 150 142 137 135 132 122 110 102 113 105 95
179 222 165 124 284 241 282 268 261 262 281 288 307 304 302 299 296 297 299 303 299 298 288 296 314 314 311 306 303 313 314 222 192 175 157 145 126 121 145 149 140 131 119 128 118 119 114 111 108